Temp
-19 -19 -18 -18 -17 -17 -17 -17 -17 -17 -18 -17 -17 -17 -17 -17 -18 -18 -18 -18 -18 -18 -18 -18 -18 -18 -18 -18 -17 -17 -17 -16 -16 -16 -16 -15 -14 -14 -15 -15 -14 -13 -12 -12 -11 -10 -9 -9 -8 -8 -7 -7 -7 -7 -7 -7 -8 -8 -8 -8 -8 -8 -8
-19 -19 -19 -18 -17 -17 -17 -17 -17 -17 -17 -17 -17 -17 -17 -17 -18 -18 -18 -18 -18 -18 -18 -18 -18 -18 -18 -18 -18 -18 -17 -17 -16 -16 -16 -16 -15 -15 -15 -15 -14 -13 -13 -12 -12 -12 -11 -10 -9 -9 -8 -8 -7 -7 -7 -7 -7 -8 -8 -8 -7 -8 -8
-20 -19 -19 -18 -18 -17 -17 -17 -17 -17 -16 -16 -16 -16 -17 -17 -18 -18 -18 -17 -17 -18 -18 -18 -19 -19 -19 -18 -18 -18 -18 -17 -17 -17 -17 -16 -16 -15 -15 -15 -15 -14 -13 -12 -12 -12 -12 -11 -10 -10 -9 -9 -8 -8 -8 -8 -7 -8 -8 -8 -8 -8 -8
-20 -19 -19 -18 -18 -18 -17 -17 -17 -16 -16 -15 -16 -16 -16 -17 -17 -17 -17 -17 -18 -18 -18 -19 -19 -19 -19 -19 -18 -18 -18 -18 -18 -17 -17 -17 -17 -16 -16 -16 -16 -15 -14 -13 -13 -12 -12 -12 -12 -11 -10 -10 -9 -9 -9 -8 -8 -8 -8 -8 -8 -8 -8
-20 -19 -19 -18 -18 -18 -17 -17 -17 -16 -16 -16 -16 -16 -16 -17 -17 -17 -17 -17 -18 -18 -18 -19 -19 -19 -19 -19 -18 -18 -18 -18 -18 -18 -17 -17 -17 -17 -16 -16 -16 -16 -15 -14 -13 -13 -12 -13 -12 -12 -11 -11 -10 -10 -9 -9 -9 -9 -8 -8 -8 -8 -8
-20 -20 -19 -18 -18 -18 -17 -17 -17 -16 -16 -16 -16 -16 -17 -17 -17 -17 -17 -18 -18 -18 -19 -19 -20 -20 -19 -19 -18 -18 -18 -18 -18 -18 -17 -17 -17 -17 -17 -16 -16 -16 -15 -15 -14 -13 -13 -13 -13 -13 -12 -12 -11 -11 -10 -10 -10 -9 -9 -9 -9 -9 -8
-20 -20 -19 -19 -18 -18 -17 -17 -17 -16 -16 -16 -16 -16 -17 -17 -17 -17 -18 -18 -18 -19 -19 -20 -20 -20 -19 -19 -18 -18 -19 -18 -18 -18 -17 -17 -17 -17 -17 -17 -16 -16 -16 -15 -15 -14 -14 -13 -13 -13 -13 -12 -12 -12 -11 -11 -11 -10 -10 -10 -9 -9 -9
-20 -19 -19 -19 -18 -18 -17 -17 -17 -16 -16 -16 -16 -17 -17 -17 -18 -18 -18 -18 -19 -20 -20 -20 -20 -19 -19 -19 -19 -19 -18 -18 -18 -18 -18 -18 -17 -17 -17 -17 -17 -16 -16 -16 -15 -15 -14 -14 -13 -13 -13 -13 -13 -12 -12 -12 -11 -11 -10 -10 -10 -10 -9
-20 -20 -19 -19 -18 -18 -18 -17 -17 -17 -16 -16 -17 -17 -17 -17 -18 -18 -18 -18 -19 -20 -20 -20 -20 -19 -19 -19 -19 -18 -18 -18 -18 -18 -18 -18 -18 -17 -17 -17 -17 -17 -16 -16 -16 -15 -15 -14 -14 -14 -13 -13 -13 -12 -12 -12 -11 -11 -11 -11 -11 -11 -10
-20 -20 -20 -19 -18 -18 -18 -17 -17 -17 -17 -17 -17 -17 -17 -17 -17 -18 -18 -18 -19 -20 -20 -20 -20 -19 -19 -19 -19 -18 -18 -18 -18 -18 -18 -18 -18 -17 -17 -17 -17 -17 -17 -17 -16 -16 -15 -15 -14 -14 -13 -13 -13 -13 -13 -12 -12 -12 -12 -11 -11 -11 -11
-20 -20 -20 -20 -19 -18 -18 -18 -17 -17 -17 -17 -17 -17 -17 -17 -17 -18 -18 -18 -18 -19 -20 -20 -20 -20 -19 -19 -19 -18 -18 -18 -18 -18 -18 -18 -18 -18 -17 -17 -17 -17 -17 -17 -17 -16 -16 -15 -15 -15 -14 -13 -13 -13 -14 -13 -13 -13 -12 -12 -12 -11 -11
-20 -20 -20 -19 -19 -19 -19 -18 -18 -18 -17 -17 -17 -17 -17 -17 -17 -18 -18 -18 -18 -19 -20 -20 -20 -19 -19 -19 -19 -19 -18 -18 -18 -18 -18 -18 -18 -18 -17 -17 -17 -17 -17 -17 -17 -16 -16 -16 -16 -15 -15 -14 -14 -14 -14 -14 -14 -13 -13 -12 -12 -12 -11
-20 -20 -19 -19 -19 -19 -19 -19 -19 -19 -18 -18 -18 -18 -17 -17 -17 -17 -18 -18 -18 -18 -19 -20 -20 -19 -19 -19 -19 -19 -19 -19 -18 -18 -18 -18 -18 -18 -18 -18 -17 -17 -17 -17 -17 -17 -16 -16 -16 -16 -15 -15 -15 -15 -15 -15 -14 -14 -13 -13 -12 -12 -11
-20 -20 -19 -19 -19 -20 -19 -19 -19 -19 -19 -19 -19 -18 -18 -18 -18 -18 -18 -18 -18 -18 -19 -19 -19 -19 -19 -19 -19 -19 -19 -19 -19 -19 -18 -18 -18 -18 -18 -18 -18 -18 -17 -17 -17 -17 -16 -16 -16 -16 -16 -16 -16 -16 -16 -15 -15 -14 -14 -13 -13 -12 -12
-20 -19 -19 -19 -19 -20 -20 -19 -19 -19 -19 -19 -19 -19 -19 -19 -18 -18 -18 -18 -18 -19 -19 -19 -19 -19 -19 -19 -19 -19 -19 -19 -19 -19 -19 -19 -19 -18 -18 -18 -18 -18 -17 -17 -17 -17 -17 -16 -16 -16 -16 -16 -16 -16 -16 -15 -15 -15 -14 -14 -14 -13 -13
-19 -19 -19 -19 -19 -19 -19 -19 -19 -19 -19 -19 -19 -19 -19 -19 -19 -19 -18 -18 -18 -19 -19 -19 -19 -19 -19 -19 -19 -19 -19 -19 -19 -18 -18 -18 -18 -18 -18 -18 -18 -18 -18 -18 -17 -17 -17 -17 -17 -17 -17 -17 -16 -16 -15 -15 -15 -15 -15 -15 -15 -14 -14
-19 -19 -19 -19 -19 -19 -19 -19 -19 -19 -19 -19 -19 -19 -19 -19 -19 -19 -19 -18 -18 -18 -19 -19 -19 -19 -19 -19 -19 -19 -19 -19 -19 -18 -18 -18 -18 -18 -18 -18 -18 -18 -18 -18 -18 -18 -17 -17 -17 -17 -17 -17 -16 -16 -16 -16 -16 -15 -15 -15 -14 -14 -13
-19 -19 -19 -19 -19 -18 -19 -19 -19 -19 -19 -19 -19 -19 -19 -19 -19 -19 -19 -19 -19 -18 -18 -19 -19 -19 -19 -19 -19 -19 -19 -19 -18 -18 -18 -18 -18 -18 -18 -18 -18 -18 -18 -18 -18 -18 -18 -17 -17 -17 -17 -17 -16 -16 -16 -16 -16 -15 -15 -15 -14 -14 -14
-19 -19 -19 -19 -19 -18 -18 -19 -19 -18 -18 -18 -19 -19 -19 -19 -19 -19 -19 -18 -19 -19 -19 -19 -19 -18 -18 -18 -18 -18 -18 -18 -18 -18 -18 -18 -18 -18 -18 -18 -18 -18 -18 -18 -18 -18 -18 -17 -17 -17 -17 -17 -17 -16 -16 -16 -16 -15 -15 -15 -15 -15 -15
-19 -19 -19 -19 -19 -19 -19 -19 -19 -18 -18 -18 -18 -18 -18 -19 -19 -19 -19 -19 -19 -19 -19 -19 -19 -18 -18 -18 -18 -18 -18 -18 -18 -18 -18 -18 -18 -18 -18 -18 -18 -18 -18 -18 -18 -18 -18 -17 -17 -17 -17 -17 -17 -17 -17 -16 -16 -16 -16 -16 -15 -15 -15
-19 -19 -19 -19 -19 -19 -19 -19 -19 -19 -18 -18 -18 -18 -18 -18 -19 -19 -19 -19 -19 -19 -19 -19 -19 -18 -18 -18 -18 -18 -18 -18 -18 -18 -18 -18 -18 -18 -18 -18 -18 -18 -18 -18 -18 -18 -18 -17 -17 -17 -17 -17 -17 -17 -17 -17 -17 -16 -16 -16 -16 -16 -15
-19 -19 -19 -19 -20 -20 -19 -19 -18 -18 -18 -18 -18 -18 -18 -18 -18 -18 -19 -19 -19 -19 -19 -19 -19 -18 -18 -18 -18 -18 -18 -18 -18 -18 -18 -18 -18 -18 -18 -18 -18 -18 -18 -18 -18 -18 -18 -18 -17 -17 -17 -17 -17 -17 -17 -17 -17 -17 -17 -17 -16 -16 -16
-19 -19 -19 -20 -20 -20 -20 -19 -18 -18 -18 -18 -18 -18 -18 -18 -18 -18 -18 -18 -18 -18 -19 -19 -18 -18 -18 -18 -18 -18 -18 -18 -18 -18 -18 -18 -18 -18 -18 -18 -18 -18 -18 -18 -18 -18 -18 -18 -17 -17 -17 -17 -17 -17 -17 -17 -17 -17 -17 -17 -17 -16 -16
-19 -19 -19 -20 -20 -20 -20 -19 -19 -18 -18 -18 -18 -17 -17 -17 -18 -18 -18 -18 -18 -18 -18 -18 -18 -18 -18 -18 -18 -18 -18 -18 -18 -18 -18 -18 -18 -18 -18 -18 -18 -18 -18 -18 -18 -18 -18 -17 -17 -17 -17 -17 -17 -17 -17 -17 -17 -17 -17 -17 -17 -17 -17
-19 -19 -19 -20 -20 -20 -20 -19 -18 -18 -17 -17 -17 -17 -17 -17 -17 -18 -18 -18 -18 -18 -18 -18 -18 -18 -18 -18 -18 -18 -18 -18 -18 -18 -18 -18 -18 -18 -18 -18 -18 -18 -18 -18 -18 -18 -18 -18 -17 -17 -17 -17 -18 -18 -18 -18 -17 -17 -17 -17 -17 -17 -17
-19 -19 -20 -20 -20 -20 -20 -20 -19 -18 -18 -17 -17 -17 -17 -17 -17 -17 -17 -17 -17 -17 -17 -17 -17 -17 -17 -17 -17 -18 -18 -18 -18 -18 -18 -18 -18 -18 -18 -18 -18 -18 -19 -18 -18 -18 -18 -18 -18 -18 -18 -18 -18 -18 -18 -18 -18 -18 -18 -18 -17 -17 -17
-18 -19 -20 -19 -20 -20 -20 -20 -19 -19 -18 -18 -17 -17 -17 -17 -17 -17 -17 -17 -17 -17 -17 -17 -17 -17 -17 -17 -17 -17 -17 -17 -17 -17 -18 -18 -18 -18 -18 -18 -18 -18 -19 -19 -18 -18 -18 -18 -18 -18 -18 -18 -18 -18 -19 -19 -19 -18 -18 -18 -18 -18 -18
-19 -19 -19 -20 -20 -20 -20 -20 -20 -19 -19 -18 -18 -18 -17 -17 -17 -17 -17 -17 -17 -17 -17 -17 -17 -17 -17 -17 -17 -17 -17 -17 -17 -17 -18 -18 -18 -18 -18 -18 -18 -18 -19 -19 -19 -19 -18 -18 -18 -18 -18 -19 -19 -19 -19 -19 -19 -19 -18 -18 -18 -18 -18
-19 -19 -19 -20 -20 -20 -20 -20 -19 -19 -19 -19 -18 -18 -18 -18 -18 -17 -17 -17 -17 -17 -17 -17 -17 -17 -17 -17 -17 -17 -17 -17 -17 -17 -18 -18 -18 -18 -18 -18 -18 -18 -18 -19 -19 -19 -19 -18 -18 -18 -18 -19 -19 -19 -19 -19 -19 -19 -19 -18 -18 -18 -18
-20 -20 -20 -20 -20 -20 -20 -20 -19 -19 -19 -19 -18 -18 -18 -18 -18 -17 -17 -17 -17 -17 -17 -17 -17 -17 -17 -17 -18 -18 -18 -18 -18 -18 -18 -18 -18 -18 -18 -18 -18 -18 -18 -18 -18 -18 -19 -19 -19 -19 -19 -19 -19 -19 -19 -19 -19 -19 -19 -19 -18 -18 -18
-20 -20 -20 -20 -20 -20 -20 -19 -19 -19 -19 -19 -18 -18 -18 -18 -17 -17 -17 -17 -17 -17 -17 -17 -17 -17 -17 -18 -18 -18 -18 -18 -18 -18 -18 -18 -18 -18 -18 -18 -18 -18 -19 -18 -18 -19 -19 -19 -19 -19 -19 -18 -19 -19 -19 -19 -19 -19 -19 -19 -19 -19 -19
-20 -20 -20 -20 -20 -20 -20 -19 -19 -19 -19 -19 -18 -18 -18 -18 -18 -17 -17 -17 -17 -17 -17 -17 -17 -17 -18 -18 -18 -18 -19 -19 -19 -18 -18 -18 -18 -18 -19 -19 -19 -19 -19 -19 -19 -19 -19 -19 -19 -18 -18 -18 -18 -19 -19 -19 -20 -20 -20 -19 -19 -19 -19
-20 -20 -20 -20 -20 -20 -20 -19 -19 -19 -19 -19 -19 -18 -18 -18 -18 -18 -18 -17 -17 -17 -17 -17 -17 -17 -18 -18 -18 -18 -19 -19 -19 -19 -19 -19 -19 -19 -19 -19 -19 -19 -19 -19 -19 -19 -19 -19 -19 -19 -18 -19 -19 -19 -19 -19 -19 -20 -20 -19 -19 -19 -19
-20 -20 -20 -20 -20 -20 -20 -20 -19 -19 -19 -19 -19 -18 -18 -18 -18 -18 -18 -17 -17 -17 -17 -17 -17 -18 -18 -18 -18 -19 -19 -19 -19 -19 -19 -19 -19 -19 -19 -19 -19 -19 -19 -19 -19 -19 -19 -19 -19 -19 -19 -19 -19 -19 -19 -19 -19 -20 -20 -20 -19 -20 -20
-19 -20 -20 -20 -20 -20 -20 -20 -20 -19 -19 -19 -19 -19 -18 -18 -18 -18 -18 -18 -17 -17 -17 -17 -18 -18 -18 -18 -19 -19 -19 -19 -19 -19 -19 -19 -19 -19 -19 -19 -19 -19 -19 -19 -19 -19 -19 -19 -19 -19 -19 -19 -19 -19 -19 -19 -19 -20 -20 -20 -20 -20 -20
-19 -20 -20 -20 -20 -20 -20 -20 -20 -20 -20 -20 -19 -19 -19 -19 -19 -18 -18 -18 -17 -17 -17 -18 -18 -18 -18 -18 -19 -19 -19 -19 -19 -20 -20 -20 -20 -20 -20 -20 -19 -19 -19 -19 -19 -19 -19 -19 -19 -19 -19 -19 -19 -19 -19 -20 -20 -20 -20 -20 -20 -20 -21
Height
2825 2827 2830 2832 2835 2837 2839 2841 2844 2846 2847 2848 2850 2853 2855 2858 2860 2861 2863 2865 2867 2869 2871 2873 2874 2876 2879 2882 2884 2888 2891 2893 2895 2898 2899 2902 2905 2907 2909 2913 2915 2918 2924 2928 2932 2936 2940 2944 2949 2953 2957 2962 2966 2969 2973 2978 2982 2986 2990 2995 2999 3003 3007
2820 2822 2825 2827 2829 2832 2834 2836 2838 2840 2842 2844 2846 2848 2850 2853 2855 2857 2858 2860 2862 2864 2866 2868 2870 2871 2874 2877 2880 2882 2885 2888 2890 2892 2894 2896 2899 2901 2903 2907 2910 2913 2918 2922 2925 2930 2933 2937 2941 2945 2950 2955 2959 2963 2966 2970 2974 2978 2982 2986 2990 2995 2999
2815 2818 2820 2823 2825 2827 2829 2831 2833 2835 2837 2839 2841 2843 2846 2849 2851 2852 2854 2855 2857 2859 2862 2863 2865 2867 2870 2873 2876 2878 2881 2883 2885 2887 2889 2891 2894 2896 2898 2901 2904 2908 2912 2916 2920 2923 2927 2931 2935 2939 2944 2948 2952 2956 2958 2962 2966 2971 2975 2978 2981 2986 2991
2811 2814 2816 2819 2821 2823 2825 2827 2829 2831 2833 2835 2837 2840 2843 2845 2846 2848 2850 2851 2853 2855 2857 2859 2861 2863 2866 2869 2872 2875 2877 2879 2881 2883 2885 2887 2890 2892 2894 2896 2899 2902 2906 2910 2914 2917 2921 2926 2929 2933 2937 2941 2944 2948 2952 2955 2959 2963 2967 2970 2974 2978 2983
2809 2811 2814 2816 2818 2820 2822 2824 2826 2828 2830 2832 2834 2836 2839 2841 2842 2844 2846 2848 2849 2851 2853 2855 2856 2859 2863 2866 2869 2871 2873 2875 2877 2879 2882 2884 2886 2888 2890 2892 2894 2897 2901 2904 2907 2911 2915 2919 2923 2926 2930 2934 2937 2941 2945 2948 2951 2955 2959 2963 2967 2971 2975
2808 2810 2812 2814 2816 2818 2819 2821 2823 2824 2826 2828 2830 2832 2835 2837 2838 2840 2842 2844 2846 2848 2850 2851 2853 2856 2859 2862 2865 2868 2870 2871 2874 2876 2878 2880 2883 2885 2887 2888 2890 2892 2895 2898 2901 2905 2908 2912 2916 2920 2924 2928 2931 2934 2938 2941 2945 2948 2952 2956 2960 2964 2968
2808 2810 2811 2813 2814 2816 2817 2819 2820 2822 2823 2824 2826 2828 2831 2833 2834 2836 2838 2840 2842 2844 2846 2848 2850 2853 2856 2859 2862 2864 2866 2868 2870 2872 2875 2877 2879 2881 2883 2885 2887 2889 2890 2892 2895 2898 2901 2905 2909 2913 2917 2921 2925 2928 2931 2934 2937 2941 2946 2951 2956 2959 2963
2810 2811 2812 2813 2814 2815 2816 2817 2818 2820 2821 2822 2824 2826 2828 2829 2831 2833 2834 2836 2838 2841 2843 2845 2847 2850 2853 2856 2859 2861 2863 2865 2867 2869 2871 2873 2876 2878 2880 2881 2883 2886 2887 2889 2891 2893 2895 2899 2903 2906 2909 2913 2917 2920 2924 2929 2933 2937 2941 2946 2950 2954 2957
2812 2812 2813 2813 2814 2815 2816 2817 2818 2819 2820 2821 2822 2824 2825 2827 2828 2829 2831 2833 2835 2837 2840 2842 2845 2847 2850 2853 2855 2857 2859 2861 2863 2865 2867 2870 2872 2874 2876 2878 2880 2882 2884 2886 2887 2889 2890 2893 2896 2899 2903 2906 2910 2915 2921 2925 2928 2931 2936 2940 2943 2947 2950
2815 2815 2815 2815 2815 2815 2816 2816 2817 2818 2819 2820 2821 2822 2823 2824 2825 2827 2828 2829 2831 2834 2837 2839 2842 2845 2848 2850 2852 2854 2856 2857 2859 2861 2863 2866 2868 2870 2872 2874 2876 2878 2880 2882 2884 2886 2887 2888 2890 2893 2897 2901 2905 2911 2914 2917 2921 2925 2929 2933 2936 2940 2943
2818 2817 2817 2816 2816 2816 2816 2816 2817 2817 2818 2818 2819 2820 2821 2822 2823 2824 2825 2826 2828 2830 2833 2836 2839 2842 2844 2847 2849 2851 2853 2854 2856 2858 2860 2862 2864 2867 2869 2871 2873 2875 2877 2878 2880 2882 2884 2885 2887 2890 2893 2897 2901 2904 2907 2910 2915 2918 2921 2925 2929 2933 2938
2820 2819 2819 2818 2818 2818 2817 2817 2817 2817 2817 2817 2817 2818 2819 2819 2820 2821 2822 2823 2824 2827 2830 2832 2835 2838 2841 2843 2846 2848 2850 2851 2853 2855 2856 2858 2861 2863 2865 2867 2869 2871 2873 2875 2876 2878 2879 2881 2884 2886 2889 2892 2896 2899 2902 2905 2908 2911 2914 2919 2922 2927 2932
2822 2821 2821 2820 2820 2819 2819 2818 2818 2817 2816 2816 2816 2816 2816 2817 2817 2818 2819 2820 2821 2823 2826 2829 2832 2835 2838 2840 2843 2845 2846 2848 2850 2852 2853 2855 2857 2859 2861 2863 2865 2867 2869 2871 2872 2873 2875 2878 2880 2882 2885 2888 2891 2894 2896 2899 2902 2905 2909 2913 2916 2921 2926
2824 2823 2822 2822 2821 2820 2819 2819 2818 2818 2817 2816 2815 2815 2815 2815 2816 2816 2816 2817 2819 2820 2823 2826 2829 2832 2835 2837 2840 2842 2844 2846 2848 2849 2851 2852 2853 2855 2857 2859 2860 2862 2864 2866 2868 2870 2872 2874 2876 2878 2881 2884 2886 2888 2891 2893 2897 2900 2904 2908 2911 2915 2918
2826 2825 2824 2823 2822 2821 2820 2819 2818 2818 2817 2816 2815 2815 2815 2815 2815 2815 2815 2815 2816 2818 2820 2823 2826 2829 2832 2835 2837 2839 2841 2843 2845 2846 2847 2848 2850 2851 2852 2854 2856 2858 2860 2862 2864 2866 2868 2870 2872 2874 2877 2879 2881 2883 2886 2889 2892 2895 2898 2901 2904 2907 2909
2827 2825 2824 2823 2822 2821 2820 2819 2818 2818 2817 2816 2816 2815 2814 2815 2815 2814 2814 2814 2814 2816 2818 2821 2824 2827 2829 2832 2834 2837 2839 2840 2842 2843 2844 2845 2846 2847 2848 2850 2852 2855 2856 2858 2860 2862 2864 2866 2868 2870 2872 2875 2877 2879 2881 2883 2886 2888 2891 2894 2896 2898 2902
2826 2825 2823 2822 2820 2820 2819 2818 2817 2816 2816 2816 2815 2815 2814 2814 2814 2814 2814 2813 2813 2814 2816 2819 2821 2824 2827 2829 2832 2834 2836 2837 2838 2839 2840 2842 2843 2844 2844 2846 2849 2851 2852 2854 2856 2858 2860 2861 2864 2866 2868 2871 2873 2875 2876 2878 2880 2883 2886 2888 2891 2893 2896
2825 2823 2821 2819 2818 2817 2817 2816 2815 2815 2815 2814 2814 2814 2813 2813 2813 2813 2813 2813 2813 2813 2815 2817 2819 2822 2824 2826 2829 2831 2833 2834 2835 2836 2837 2839 2840 2840 2841 2843 2845 2847 2848 2850 2852 2854 2856 2857 2859 2862 2864 2866 2868 2871 2873 2874 2876 2879 2882 2884 2886 2889 2892
2824 2821 2818 2817 2815 2815 2814 2814 2813 2813 2812 2812 2812 2812 2812 2812 2812 2812 2812 2812 2813 2813 2814 2816 2818 2820 2822 2824 2826 2828 2829 2831 2832 2833 2834 2836 2836 2837 2838 2841 2843 2844 2845 2847 2848 2850 2852 2854 2856 2858 2860 2862 2864 2867 2869 2871 2873 2875 2877 2879 2882 2884 2886
2822 2820 2817 2815 2813 2812 2811 2811 2811 2810 2810 2810 2810 2810 2811 2811 2811 2811 2811 2812 2812 2813 2814 2815 2817 2818 2820 2822 2823 2825 2826 2828 2829 2830 2832 2833 2833 2835 2837 2839 2840 2841 2842 2843 2845 2846 2848 2850 2852 2854 2856 2858 2860 2862 2865 2867 2870 2871 2873 2876 2878 2880 2882
2821 2819 2816 2814 2812 2810 2809 2808 2808 2808 2808 2808 2808 2808 2809 2809 2810 2810 2811 2811 2812 2813 2814 2815 2816 2817 2818 2820 2821 2823 2824 2825 2826 2828 2829 2830 2831 2833 2835 2836 2836 2837 2838 2839 2841 2843 2844 2846 2848 2850 2852 2854 2856 2859 2861 2863 2866 2868 2870 2872 2874 2876 2878
2820 2818 2816 2813 2811 2809 2807 2806 2806 2806 2806 2806 2806 2807 2807 2808 2809 2809 2810 2811 2811 2812 2813 2814 2815 2816 2817 2818 2819 2821 2822 2823 2825 2826 2826 2827 2829 2831 2832 2832 2833 2834 2835 2836 2837 2839 2840 2842 2844 2846 2848 2850 2852 2855 2857 2860 2862 2864 2866 2868 2870 2872 2874
2820 2818 2815 2813 2811 2809 2806 2804 2804 2804 2804 2804 2804 2804 2805 2806 2807 2808 2809 2810 2810 2811 2812 2812 2813 2814 2815 2816 2817 2818 2819 2821 2822 2823 2823 2825 2826 2828 2829 2829 2830 2831 2832 2833 2834 2835 2837 2839 2841 2842 2844 2846 2848 2851 2853 2855 2858 2860 2861 2863 2865 2867 2869
2820 2817 2815 2813 2811 2808 2806 2803 2802 2802 2802 2802 2802 2803 2804 2805 2806 2807 2807 2808 2809 2810 2810 2811 2811 2812 2813 2813 2814 2815 2816 2817 2818 2819 2820 2822 2823 2824 2825 2826 2827 2828 2829 2830 2831 2832 2834 2835 2837 2840 2841 2843 2846 2848 2849 2851 2853 2855 2857 2859 2861 2864 2866
2819 2817 2814 2812 2810 2807 2804 2802 2801 2801 2800 2801 2801 2802 2803 2804 2804 2805 2806 2807 2808 2808 2808 2809 2809 2810 2810 2811 2811 2812 2813 2814 2815 2816 2817 2818 2819 2821 2822 2822 2824 2825 2826 2827 2828 2829 2831 2833 2835 2837 2839 2841 2843 2845 2846 2848 2850 2851 2853 2856 2858 2860 2862
2819 2817 2814 2812 2809 2807 2805 2803 2801 2801 2800 2800 2801 2802 2802 2803 2804 2804 2805 2805 2806 2806 2806 2806 2806 2807 2807 2807 2808 2808 2809 2810 2811 2812 2812 2814 2815 2816 2817 2818 2820 2822 2823 2824 2825 2827 2829 2831 2833 2835 2837 2838 2840 2841 2843 2845 2847 2848 2851 2853 2854 2856 2858
2818 2816 2814 2812 2810 2808 2806 2804 2803 2802 2801 2801 2801 2801 2802 2802 2802 2803 2803 2803 2803 2803 2803 2803 2803 2803 2803 2803 2803 2804 2804 2805 2806 2807 2808 2809 2810 2812 2813 2815 2817 2818 2820 2822 2823 2825 2826 2828 2830 2832 2834 2835 2837 2839 2840 2842 2844 2846 2848 2850 2851 2853 2854
2818 2816 2814 2812 2810 2809 2808 2806 2805 2804 2803 2802 2802 2802 2802 2801 2801 2801 2801 2801 2801 2801 2801 2801 2800 2800 2800 2800 2800 2800 2800 2801 2801 2802 2803 2804 2806 2807 2809 2811 2813 2815 2817 2819 2821 2822 2824 2826 2828 2829 2831 2833 2834 2836 2838 2840 2841 2843 2845 2846 2848 2849 2851
2817 2816 2814 2812 2811 2810 2808 2807 2806 2805 2804 2803 2803 2802 2802 2801 2801 2801 2801 2800 2800 2800 2799 2799 2798 2798 2797 2797 2797 2797 2797 2797 2798 2799 2800 2801 2802 2804 2806 2808 2810 2812 2814 2816 2818 2820 2822 2824 2825 2827 2828 2830 2832 2834 2836 2837 2839 2840 2842 2843 2844 2846 2848
2818 2816 2815 2813 2812 2811 2809 2808 2807 2806 2805 2804 2803 2802 2802 2801 2801 2800 2800 2800 2799 2798 2797 2797 2796 2795 2795 2794 2794 2794 2794 2795 2795 2796 2797 2798 2799 2800 2802 2804 2807 2809 2811 2813 2815 2817 2819 2821 2823 2824 2826 2828 2829 2831 2833 2835 2836 2838 2839 2840 2841 2843 2844
2819 2817 2816 2814 2812 2811 2810 2808 2807 2806 2805 2804 2803 2802 2801 2801 2800 2800 2799 2798 2798 2797 2796 2795 2794 2793 2793 2792 2792 2791 2792 2792 2792 2793 2794 2795 2796 2797 2799 2801 2803 2806 2808 2810 2812 2814 2816 2818 2820 2822 2823 2825 2827 2829 2830 2832 2833 2835 2836 2837 2838 2839 2841
2819 2817 2816 2814 2812 2811 2810 2808 2807 2806 2805 2804 2803 2802 2801 2800 2800 2799 2798 2798 2797 2795 2794 2794 2793 2792 2791 2791 2790 2790 2789 2789 2790 2791 2792 2793 2794 2795 2796 2798 2800 2803 2805 2807 2809 2811 2813 2815 2817 2819 2821 2822 2824 2826 2828 2829 2830 2831 2832 2834 2835 2836 2838
2818 2816 2815 2814 2812 2810 2809 2808 2807 2806 2805 2804 2802 2801 2801 2800 2799 2799 2798 2797 2796 2795 2794 2793 2792 2791 2790 2789 2789 2788 2788 2788 2788 2789 2790 2791 2792 2793 2794 2796 2798 2800 2802 2804 2806 2808 2810 2812 2814 2816 2817 2819 2821 2823 2825 2827 2828 2829 2829 2830 2832 2833 2835
2817 2815 2814 2813 2811 2810 2808 2807 2806 2805 2804 2803 2802 2801 2800 2800 2799 2799 2798 2797 2796 2795 2794 2793 2791 2790 2789 2788 2788 2787 2787 2787 2787 2788 2788 2789 2790 2791 2792 2794 2795 2797 2799 2801 2803 2805 2806 2808 2810 2812 2814 2816 2818 2820 2822 2823 2825 2826 2826 2827 2828 2830 2832
2816 2814 2813 2811 2810 2808 2807 2806 2805 2804 2803 2803 2802 2801 2800 2799 2799 2798 2797 2796 2795 2794 2793 2792 2791 2790 2789 2788 2787 2787 2787 2787 2787 2787 2788 2788 2789 2790 2791 2792 2793 2795 2796 2798 2800 2802 2803 2805 2807 2809 2811 2813 2814 2816 2818 2820 2821 2822 2823 2824 2825 2827 2828
2814 2812 2810 2809 2808 2806 2805 2804 2804 2803 2802 2802 2801 2800 2799 2799 2798 2797 2797 2796 2795 2794 2792 2791 2790 2789 2788 2787 2787 2787 2786 2786 2787 2787 2787 2787 2788 2789 2790 2790 2791 2793 2794 2795 2797 2799 2801 2802 2804 2806 2808 2810 2811 2813 2815 2816 2818 2819 2820 2821 2822 2823 2824
Wind_Speed
39 39 38 37 35 34 33 32 32 32 34 38 40 40 39 38 37 38 38 39 39 39 39 39 39 40 39 40 41 42 41 40 40 43 44 47 52 56 56 59 63 57 47 44 47 53 60 65 68 71 71 67 66 71 78 79 74 72 71 69 66 64 61
36 36 35 34 32 31 30 30 31 32 34 37 39 39 38 38 38 38 39 39 38 37 37 37 37 36 35 35 37 37 36 36 38 40 42 44 47 52 53 54 60 63 56 47 43 42 47 55 60 63 66 67 63 62 69 78 79 75 73 72 71 68 65
31 32 32 31 30 28 28 29 30 32 34 36 37 36 35 35 36 37 37 36 35 34 34 34 34 33 32 32 32 32 32 34 37 38 39 40 41 45 49 49 51 59 63 58 50 43 40 43 49 53 55 58 59 57 56 65 75 78 75 73 72 71 68
23 25 27 27 26 25 26 27 29 31 32 33 34 33 31 32 34 34 34 34 33 32 32 33 34 32 30 31 31 30 32 35 36 35 34 35 35 37 42 44 45 51 60 64 61 55 47 41 41 45 48 49 52 54 53 53 60 70 75 76 74 71 70
14 17 20 21 21 22 23 25 26 28 28 28 29 29 29 30 31 31 31 31 31 31 31 31 32 31 29 31 31 31 34 35 35 33 31 30 32 34 36 39 41 44 50 59 63 62 59 53 46 43 44 45 47 50 53 52 52 56 62 68 72 73 72
6 8 11 14 16 17 19 21 23 24 24 24 25 26 27 28 29 29 29 29 29 30 30 29 28 28 28 29 30 32 33 33 32 30 29 30 32 33 32 33 36 38 41 48 55 60 62 61 58 51 46 44 45 46 49 51 51 51 52 55 60 65 68
4 2 3 7 9 12 14 17 19 21 22 22 22 23 25 26 26 27 27 28 28 29 30 28 27 25 26 27 29 31 31 31 30 28 27 30 31 32 31 31 33 34 36 39 44 51 58 61 61 59 55 51 48 47 47 48 48 49 49 50 52 55 58
11 8 5 2 3 6 9 12 14 16 17 19 20 21 22 23 24 25 26 27 28 28 28 27 27 27 27 28 29 29 29 29 29 27 26 27 29 30 31 31 31 31 33 35 37 42 49 55 57 58 59 58 55 54 52 51 50 48 47 47 49 52 55
16 13 10 7 4 2 2 5 8 10 12 14 17 19 20 21 22 23 25 26 27 28 27 26 28 29 27 27 28 27 27 27 26 27 27 27 27 28 29 29 29 29 30 31 34 36 41 47 52 55 57 58 59 60 59 57 55 54 52 49 47 48 52
20 17 15 12 10 7 4 2 4 7 9 11 14 16 18 20 22 23 25 27 27 28 29 28 28 29 28 27 27 27 26 26 26 27 27 28 29 30 30 29 28 28 28 28 29 31 35 40 45 50 54 57 58 57 59 60 60 59 57 55 54 51 50
21 20 18 16 14 11 8 6 4 6 8 11 13 16 18 20 22 23 25 27 27 30 32 31 29 30 30 29 27 26 25 25 25 27 27 28 30 32 32 31 30 29 29 29 29 28 29 33 37 42 47 52 54 54 53 55 57 58 58 56 56 57 54
22 20 18 17 15 13 12 10 8 6 6 8 11 14 16 18 21 23 24 26 27 29 33 33 31 31 31 30 27 24 24 24 25 26 27 28 29 31 32 32 32 32 31 31 30 29 29 29 30 33 37 42 47 50 50 49 50 53 55 55 54 56 56
20 19 18 16 15 14 13 12 11 9 6 5 6 8 11 14 17 20 21 23 25 28 32 34 32 30 30 29 26 24 23 24 23 23 24 25 27 29 30 31 31 32 32 32 31 31 31 30 29 30 32 35 38 42 45 47 48 48 51 53 54 55 56
17 17 16 15 14 13 12 11 11 10 7 5 5 4 4 6 10 14 17 19 22 26 30 32 30 29 28 28 26 25 23 22 21 21 21 22 25 27 29 30 31 32 33 33 33 33 33 32 31 30 30 31 34 37 39 43 45 45 46 48 51 54 56
15 15 15 14 12 11 11 10 8 7 6 6 7 8 8 7 6 8 11 15 18 21 25 29 29 27 28 28 27 25 23 22 21 21 21 21 23 25 27 28 31 32 32 32 33 33 32 31 30 30 29 30 33 36 38 40 42 42 42 43 46 51 54
18 17 16 15 12 10 10 10 8 5 4 4 5 6 8 8 8 7 7 9 14 17 19 24 28 28 28 28 27 26 24 23 23 23 23 23 23 25 26 26 28 29 29 30 31 31 31 30 29 29 29 30 32 36 39 41 41 40 41 41 43 47 51
22 21 18 17 14 10 8 10 9 8 6 4 3 4 6 6 6 6 6 5 9 15 18 20 24 27 28 29 28 27 25 25 26 25 24 23 23 24 24 23 24 26 27 28 28 28 29 29 29 30 31 33 34 34 36 39 40 40 40 41 43 46 49
25 24 21 18 16 12 9 9 10 10 8 7 7 7 6 4 4 5 5 3 2 9 15 19 22 24 26 27 27 27 26 27 27 26 24 22 21 22 22 19 19 22 25 27 27 27 29 29 30 31 32 34 36 35 33 35 36 37 37 38 39 43 46
28 25 23 20 18 15 11 10 11 11 10 9 11 10 8 7 7 7 6 1 1 3 8 14 18 21 22 23 24 25 26 26 26 24 21 19 20 21 20 18 17 20 23 26 27 29 29 28 29 31 32 33 35 36 34 33 32 33 33 33 34 36 39
29 24 22 20 18 16 13 9 10 12 12 11 11 12 11 11 11 10 8 5 4 4 6 10 14 17 19 20 21 23 23 23 23 21 18 19 21 20 17 17 19 21 23 25 27 28 28 28 29 31 32 32 33 35 36 33 30 30 30 30 30 31 32
29 23 20 18 18 17 15 11 8 10 12 12 12 12 12 12 12 12 11 9 8 8 8 10 12 15 16 18 19 20 20 20 20 20 20 21 21 19 17 18 19 20 22 24 26 27 28 28 29 31 32 32 31 33 35 35 33 31 29 29 30 29 28
28 23 19 17 17 18 19 16 10 7 9 12 12 12 12 12 12 12 11 11 11 11 11 12 13 15 16 17 19 19 20 21 21 22 23 24 23 22 22 21 21 21 23 24 25 27 28 28 29 30 31 32 31 31 32 34 35 34 33 32 31 31 30
26 21 18 17 15 17 19 18 14 9 7 9 11 12 13 14 14 13 12 12 12 12 13 14 15 15 16 18 19 20 21 22 22 23 23 24 24 23 23 23 22 22 24 24 25 27 27 27 28 29 30 30 30 30 30 31 32 33 33 33 33 34 33
23 19 18 16 14 13 14 14 13 10 6 7 9 10 11 12 13 13 13 12 12 12 13 14 15 16 17 18 19 19 20 21 21 22 23 24 24 23 23 23 23 22 24 25 26 26 27 27 27 27 28 29 28 28 29 29 29 30 30 30 30 31 32
20 18 18 17 15 15 15 14 11 8 5 4 6 7 8 9 11 12 12 12 12 12 13 15 16 17 18 20 21 21 22 23 24 25 25 26 25 25 25 26 25 24 24 25 26 26 26 26 26 26 27 27 27 27 28 28 28 28 28 28 28 28 29
18 18 18 17 17 19 20 18 14 9 4 1 2 3 4 5 7 8 10 10 11 13 14 15 17 18 20 21 23 24 25 26 27 28 28 28 27 28 29 29 27 27 26 26 26 27 26 25 25 25 25 26 26 26 26 26 26 27 27 28 28 28 29
19 19 17 17 18 19 18 18 16 12 8 5 3 1 1 2 3 5 7 8 9 11 13 15 16 18 20 21 22 23 24 24 25 25 26 28 28 29 30 31 29 29 28 27 25 25 25 24 23 24 24 24 25 25 25 25 25 26 27 27 27 28 29
21 20 19 18 18 18 17 16 15 13 11 9 6 3 2 1 3 4 6 7 9 10 12 14 15 17 17 18 18 19 20 21 21 21 21 24 26 28 30 31 30 29 29 27 24 23 22 21 21 22 22 23 23 23 23 24 25 25 25 26 26 27 28
24 21 20 18 17 16 15 14 12 11 10 9 6 4 2 3 4 5 6 7 8 9 11 12 13 14 14 13 13 14 15 16 17 18 18 20 23 26 29 32 31 29 29 27 24 22 21 19 19 19 19 21 22 22 23 23 23 23 23 25 26 27 27
22 21 19 16 14 13 12 11 11 10 8 7 6 5 4 3 3 4 4 5 6 8 10 11 12 12 12 11 10 10 11 12 13 14 16 17 21 25 29 32 32 30 30 29 26 24 23 21 19 18 17 17 19 20 22 22 21 21 22 23 24 26 27
19 19 17 14 13 12 11 9 8 8 7 6 5 4 3 2 2 2 3 5 7 8 9 10 11 11 11 11 10 10 10 10 10 11 12 15 19 23 28 32 34 32 31 30 29 28 27 25 24 23 22 21 19 19 19 21 21 21 21 21 22 24 25
17 17 16 13 13 13 13 10 7 6 7 6 5 3 2 1 2 4 5 6 7 7 8 8 9 10 10 9 9 8 8 8 8 9 10 12 16 20 24 29 33 34 33 33 32 31 30 29 28 27 26 26 26 23 20 20 22 23 23 22 22 22 22
18 16 15 13 12 13 13 11 8 7 6 6 5 4 3 2 2 4 5 6 6 6 6 6 7 7 7 6 5 5 5 5 5 7 8 10 13 17 20 23 26 29 31 32 32 32 31 30 29 27 25 25 27 26 24 24 25 27 28 27 25 23 22
19 17 15 14 12 12 12 10 9 8 7 6 5 4 4 3 3 4 4 6 6 5 4 5 5 4 4 3 2 1 1 2 3 4 6 8 11 14 18 20 22 24 25 26 27 28 29 29 30 29 27 26 27 28 29 30 30 30 31 30 27 25 25
20 18 15 13 12 12 11 10 9 9 9 7 5 4 4 4 4 5 5 6 7 6 4 4 4 3 2 1 2 3 2 1 1 2 4 6 9 11 14 17 20 22 23 24 24 24 25 26 27 28 28 28 28 29 30 31 32 32 32 31 28 27 26
22 20 17 14 12 12 11 10 10 9 8 7 6 5 4 4 4 5 5 6 7 6 4 4 4 2 2 3 3 3 2 1 1 2 3 4 5 8 10 12 15 17 19 22 23 23 24 25 25 26 26 27 27 28 28 29 29 30 30 30 28 27 27
Wind_Direction
258 257 258 258 257 256 254 250 245 242 238 236 238 238 236 235 235 238 242 245 246 246 246 246 246 246 245 242 238 236 235 236 237 237 236 233 232 237 241 241 240 237 229 223 223 224 224 226 228 230 231 228 225 224 223 222 222 222 223 222 222 221 221
259 258 258 257 257 255 251 247 243 240 237 237 238 237 235 233 233 237 241 243 244 245 245 245 244 243 242 238 235 234 234 235 235 236 236 235 233 234 239 241 241 240 235 229 226 224 222 223 224 227 229 228 226 225 224 223 222 222 223 223 223 222 221
262 257 257 256 256 254 249 244 240 238 238 238 238 238 235 233 233 237 240 242 242 243 244 242 241 241 237 231 229 230 232 234 235 235 236 237 235 235 238 240 240 241 240 236 233 230 227 224 223 224 226 226 225 225 224 222 222 222 222 223 224 223 222
264 258 255 254 253 251 246 241 238 237 240 241 241 240 236 234 236 238 239 240 241 242 243 241 239 238 232 226 225 227 231 233 234 236 236 237 237 236 238 241 241 241 241 240 239 237 235 232 227 225 225 225 224 224 223 222 220 221 222 223 224 224 223
263 256 254 252 251 247 243 240 238 238 241 243 244 242 238 236 237 238 238 238 240 241 241 239 238 235 226 224 225 227 232 235 235 235 235 235 236 237 237 239 242 242 241 241 242 241 240 239 236 231 227 226 226 225 225 224 221 220 221 221 223 224 225
270 257 251 249 247 244 240 238 237 237 238 238 240 240 238 236 235 235 236 238 240 240 238 235 235 230 222 222 228 230 234 238 237 235 234 233 234 236 237 238 240 242 241 240 241 241 242 242 241 239 235 232 231 229 228 228 226 225 224 222 221 221 223
27 342 262 251 247 241 238 237 235 236 236 234 233 233 232 231 231 232 234 237 238 237 236 232 225 221 219 222 229 233 236 238 239 237 234 232 233 235 237 239 239 240 241 241 240 240 241 242 242 243 241 239 238 235 233 232 230 229 228 228 227 224 222
50 46 42 1 274 252 246 241 239 238 236 233 230 229 228 227 229 231 233 237 236 231 231 229 219 213 216 222 228 233 236 237 238 238 236 235 235 234 235 238 238 238 240 241 241 241 241 241 241 242 243 242 241 241 240 238 235 233 231 231 232 232 230
52 50 48 46 40 5 277 249 243 241 238 236 233 231 230 229 230 233 234 237 236 226 220 223 219 213 213 220 225 229 233 234 234 234 234 234 234 234 236 238 237 237 237 238 240 241 241 240 240 240 241 242 243 243 244 244 243 241 240 238 237 235 234
54 52 49 47 44 39 22 318 266 254 247 245 242 239 238 236 236 238 236 236 233 221 213 217 219 215 213 218 224 227 231 232 231 231 231 230 230 232 235 237 236 236 237 238 239 239 241 241 240 239 239 241 242 243 243 244 245 245 245 244 242 239 237
54 55 53 49 45 38 26 3 320 285 267 259 255 251 249 246 245 245 242 239 233 220 212 214 217 217 216 219 224 229 231 232 232 231 231 230 229 231 233 233 234 236 239 241 241 240 241 241 241 240 239 238 240 241 241 241 242 244 245 245 244 242 240
45 46 47 46 43 40 32 19 1 335 301 281 271 263 258 254 251 249 248 244 236 221 213 213 217 218 219 220 224 228 230 231 232 233 233 233 232 233 234 235 236 237 239 242 243 243 244 243 243 242 240 237 237 238 240 240 239 239 241 242 243 242 242
29 30 31 32 31 32 32 24 11 2 349 322 301 282 270 262 255 252 251 248 240 226 215 213 217 219 219 220 221 223 226 228 231 233 235 236 236 235 236 237 237 238 237 238 240 242 244 246 245 244 242 240 238 237 238 238 238 237 238 239 241 242 242
20 17 16 16 13 12 17 18 12 11 17 28 32 14 325 292 269 257 252 249 244 233 220 214 215 218 217 216 216 218 222 224 227 231 235 238 240 240 237 235 236 237 236 236 238 241 244 246 247 246 242 238 238 238 238 238 238 238 238 239 240 240 240
19 13 9 7 4 357 353 357 6 15 22 38 50 45 31 10 333 287 259 245 240 236 226 217 214 215 216 214 214 217 221 223 226 232 236 241 245 245 240 234 234 236 237 236 237 240 243 244 245 244 239 233 234 237 237 237 237 237 238 239 239 239 238
8 3 358 354 353 348 336 332 338 347 354 8 25 18 4 353 343 329 294 251 231 228 225 219 215 215 216 216 215 218 223 227 233 239 243 246 250 250 244 236 232 235 236 235 235 237 238 237 236 235 233 231 233 236 234 231 231 232 234 236 238 238 237
356 349 343 337 333 328 316 311 312 310 306 306 305 304 307 314 323 326 320 286 235 222 218 216 214 215 216 217 216 219 225 232 239 244 248 250 251 248 243 236 232 233 233 233 234 235 236 234 231 230 230 228 230 234 233 228 226 229 233 236 239 239 239
351 345 339 332 326 318 300 283 284 288 281 264 256 256 254 256 278 286 296 326 259 225 218 214 214 214 216 217 218 221 227 234 240 245 247 249 246 242 239 238 236 235 233 231 232 235 236 233 229 229 230 230 230 233 234 231 227 228 233 237 240 241 240
351 346 341 336 332 326 312 281 266 268 268 257 251 251 247 239 244 259 268 282 98 216 217 216 218 220 221 222 222 224 228 232 236 240 241 240 238 237 239 242 242 241 237 232 231 235 237 235 231 230 231 232 232 233 233 233 229 227 229 234 239 240 239
351 348 343 337 332 329 324 304 271 260 260 257 250 246 243 240 242 249 257 252 221 201 199 206 214 220 223 225 224 224 226 228 232 235 234 234 237 240 242 244 242 240 236 232 231 235 238 236 234 233 232 231 233 233 232 231 229 224 223 226 229 231 232
350 349 346 340 334 329 325 320 296 266 257 255 250 243 236 235 238 241 245 249 243 228 214 207 209 215 220 222 222 222 224 226 230 235 237 239 242 245 246 243 239 236 234 232 230 231 234 234 233 232 231 230 230 232 232 231 230 226 222 220 221 222 223
349 350 349 345 336 328 323 320 316 288 261 253 250 242 232 228 231 234 237 241 243 240 235 229 224 221 220 220 220 222 224 227 231 236 239 239 240 242 243 241 237 233 231 230 227 227 229 230 230 230 230 229 227 228 231 233 233 232 231 228 225 224 224
347 349 352 348 334 322 317 315 314 304 271 253 250 244 234 228 229 234 237 237 238 238 238 238 237 234 229 226 224 224 226 228 230 234 238 239 238 239 240 240 238 235 232 228 224 224 225 226 227 228 229 229 227 226 228 231 234 235 235 233 231 229 229
349 352 355 354 340 327 324 322 318 312 288 253 244 244 238 230 230 235 240 242 242 242 241 241 241 240 239 236 234 232 230 229 230 233 236 239 238 235 236 239 238 237 236 232 226 223 223 223 224 225 227 230 229 227 228 230 231 234 234 232 231 231 231
355 359 2 3 2 360 359 356 346 335 317 263 239 242 242 234 233 239 245 250 252 251 249 248 246 245 244 243 241 241 239 237 238 239 241 243 242 235 231 233 236 236 237 235 231 228 226 225 224 224 225 227 229 229 229 229 229 231 233 231 229 228 228
3 7 8 13 19 18 15 13 12 11 8 331 255 254 252 242 239 245 250 253 254 254 253 253 251 251 251 250 249 249 249 248 247 246 245 245 244 238 231 230 232 233 235 236 234 232 231 229 228 227 224 223 225 226 227 229 229 230 231 231 230 229 228
11 11 12 19 26 24 20 19 19 20 21 18 8 352 305 241 233 238 244 247 248 250 252 253 254 254 254 254 254 254 254 253 251 248 245 242 241 238 232 228 229 232 234 237 237 236 236 235 232 229 226 222 223 224 224 227 231 232 232 232 232 231 231
13 12 11 17 22 22 20 20 23 24 22 18 17 17 357 274 239 240 246 247 250 254 257 258 259 258 257 256 255 254 253 252 250 247 244 238 236 235 229 224 226 231 234 236 235 234 235 235 232 228 224 219 219 221 223 227 232 235 236 235 235 235 234
9 8 9 11 14 18 16 14 17 23 20 12 8 2 334 285 259 253 252 254 259 264 267 268 269 269 268 267 264 259 254 251 249 247 245 238 233 231 227 221 221 226 230 232 232 231 232 232 230 227 222 217 217 219 221 226 233 238 239 239 238 237 235
2 2 3 1 2 7 7 4 8 13 7 358 352 341 322 300 275 262 261 272 279 278 277 279 281 284 285 283 280 273 261 252 245 242 243 240 232 227 223 218 217 220 224 226 228 229 231 231 229 229 228 225 225 224 223 225 233 240 243 244 242 239 237
356 356 356 350 344 344 346 351 360 2 354 348 344 332 326 331 337 334 322 310 301 290 285 284 284 286 286 282 277 273 263 255 246 237 235 236 230 224 220 217 216 218 221 222 223 225 226 228 230 234 237 236 233 231 231 231 236 241 245 245 244 243 243
351 351 349 342 330 328 332 339 347 348 345 340 332 327 341 359 350 345 337 324 309 294 285 283 281 283 286 282 274 266 257 252 249 240 233 231 227 222 218 215 215 218 221 223 225 225 225 225 228 233 239 239 234 232 233 237 240 244 248 248 247 248 251
349 345 342 335 323 317 320 326 331 337 344 340 329 327 334 319 324 341 339 331 321 302 286 284 286 292 299 294 277 263 256 252 251 246 241 234 228 223 218 215 215 218 221 223 226 228 228 228 228 229 232 234 234 231 231 233 237 243 248 252 252 252 255
344 339 336 331 321 311 309 313 317 324 333 336 332 331 323 301 300 316 325 331 334 323 303 298 302 311 321 317 315 344 334 302 276 254 241 234 229 225 223 221 219 218 220 222 224 227 229 231 232 231 227 226 227 227 227 228 229 232 240 248 251 251 252
341 336 332 327 318 307 303 304 305 307 315 319 318 323 322 306 294 298 308 326 338 337 326 314 316 331 1 47 63 57 44 14 320 258 232 225 225 223 223 224 224 223 222 223 223 225 226 227 228 228 226 225 225 226 228 229 229 229 233 240 244 245 246
342 338 334 328 318 309 305 305 302 301 306 308 306 308 314 306 293 295 306 324 337 339 333 319 319 346 41 70 76 77 82 111 182 217 215 212 218 219 218 220 222 222 223 223 223 223 224 224 224 224 225 226 227 228 229 230 230 231 234 238 242 243 243